Time,TemperatureF,DewpointF,PressureIn,WindDirection,WindDirectionDegrees,WindSpeedMPH,WindSpeedGustMPH,Humidity,HourlyPrecipIn,Conditions,Clouds,dailyrainin,SoftwareType,DateUTC
2013-04-02 00:00:00,26.0,16.2,30.09,West,267,3.0,3.0,66,0.00,,,0.00,Wunderground v.1.15,2013-04-02 04:00:00,
2013-04-02 00:01:00,26.0,16.2,30.09,West,267,3.0,3.0,66,0.00,,,0.00,Wunderground v.1.15,2013-04-02 04:01:00,
2013-04-02 00:02:00,26.0,16.2,30.09,West,267,3.0,3.0,66,0.00,,,0.00,Wunderground v.1.15,2013-04-02 04:02:00,
2013-04-02 00:07:00,25.8,15.6,30.09,West,272,3.0,5.0,65,0.00,,,0.00,Wunderground v.1.15,2013-04-02 04:07:00,
2013-04-02 00:08:00,25.8,15.6,30.09,West,272,3.0,5.0,65,0.00,,,0.00,Wunderground v.1.15,2013-04-02 04:08:00,
2013-04-02 00:13:00,25.7,15.9,30.09,West,272,3.0,3.0,66,0.00,,,0.00,Wunderground v.1.15,2013-04-02 04:13:00,
2013-04-02 00:18:00,25.6,15.8,30.09,WSW,256,2.0,3.0,66,0.00,,,0.00,Wunderground v.1.15,2013-04-02 04:18:00,
2013-04-02 00:24:00,25.5,15.7,30.09,WSW,257,3.0,4.0,66,0.00,,,0.00,Wunderground v.1.15,2013-04-02 04:24:00,
2013-04-02 00:30:00,25.5,15.7,30.09,West,264,3.0,3.0,66,0.00,,,0.00,Wunderground v.1.15,2013-04-02 04:30:00,
2013-04-02 00:36:00,25.4,16.0,30.09,West,269,3.0,6.0,67,0.00,,,0.00,Wunderground v.1.15,2013-04-02 04:36:00,
2013-04-02 00:42:00,25.3,15.9,30.09,West,259,3.0,4.0,67,0.00,,,0.00,Wunderground v.1.15,2013-04-02 04:42:00,
2013-04-02 00:47:00,25.2,15.8,30.09,West,273,2.0,4.0,67,0.00,,,0.00,Wunderground v.1.15,2013-04-02 04:47:00,
2013-04-02 00:53:00,25.0,15.6,30.09,West,273,2.0,3.0,67,0.00,,,0.00,Wunderground v.1.15,2013-04-02 04:53:00,
2013-04-02 00:59:00,24.9,15.8,30.09,West,274,2.0,4.0,68,0.00,,,0.00,Wunderground v.1.15,2013-04-02 04:59:00,
2013-04-02 01:04:00,24.9,15.8,30.09,West,274,2.0,4.0,68,0.00,,,0.00,Wunderground v.1.15,2013-04-02 05:04:00,
2013-04-02 01:09:00,24.8,15.7,30.09,WSW,257,3.0,4.0,68,0.00,,,0.00,Wunderground v.1.15,2013-04-02 05:09:00,
2013-04-02 01:14:00,24.7,15.6,30.09,WNW,284,3.0,3.0,68,0.00,,,0.00,Wunderground v.1.15,2013-04-02 05:14:00,
2013-04-02 01:20:00,24.7,15.6,30.09,West,271,3.0,3.0,68,0.00,,,0.00,Wunderground v.1.15,2013-04-02 05:20:00,
2013-04-02 01:26:00,24.7,15.6,30.09,WSW,252,3.0,4.0,68,0.00,,,0.00,Wunderground v.1.15,2013-04-02 05:26:00,
2013-04-02 01:31:00,24.6,15.5,30.09,West,273,3.0,4.0,68,0.00,,,0.00,Wunderground v.1.15,2013-04-02 05:31:00,
2013-04-02 01:36:00,24.6,15.5,30.09,WSW,249,3.0,4.0,68,0.00,,,0.00,Wunderground v.1.15,2013-04-02 05:36:00,
2013-04-02 01:42:00,24.6,15.5,30.10,West,271,3.0,4.0,68,0.00,,,0.00,Wunderground v.1.15,2013-04-02 05:42:00,
2013-04-02 01:47:00,24.5,15.4,30.10,West,269,2.0,4.0,68,0.00,,,0.00,Wunderground v.1.15,2013-04-02 05:47:00,
2013-04-02 01:53:00,24.4,15.7,30.10,WSW,250,2.0,6.0,69,0.00,,,0.00,Wunderground v.1.15,2013-04-02 05:53:00,
2013-04-02 01:59:00,24.3,15.6,30.10,West,279,2.0,6.0,69,0.00,,,0.00,Wunderground v.1.15,2013-04-02 05:59:00,
2013-04-02 02:05:00,24.4,15.7,30.09,West,271,2.0,6.0,69,0.00,,,0.00,Wunderground v.1.15,2013-04-02 06:05:00,
2013-04-02 02:11:00,24.4,15.7,30.09,West,266,3.0,3.0,69,0.00,,,0.00,Wunderground v.1.15,2013-04-02 06:11:00,
2013-04-02 02:16:00,24.4,15.7,30.09,WNW,293,3.0,4.0,69,0.00,,,0.00,Wunderground v.1.15,2013-04-02 06:16:00,
2013-04-02 02:22:00,24.4,15.7,30.09,West,267,3.0,5.0,69,0.00,,,0.00,Wunderground v.1.15,2013-04-02 06:22:00,
2013-04-02 02:28:00,24.4,15.7,30.10,WSW,256,3.0,5.0,69,0.00,,,0.00,Wunderground v.1.15,2013-04-02 06:28:00,
2013-04-02 02:33:00,24.4,15.7,30.10,WSW,252,3.0,6.0,69,0.00,,,0.00,Wunderground v.1.15,2013-04-02 06:33:00,
2013-04-02 02:39:00,24.4,15.7,30.10,West,261,3.0,6.0,69,0.00,,,0.00,Wunderground v.1.15,2013-04-02 06:39:00,
2013-04-02 02:44:00,24.3,15.6,30.10,WSW,244,4.0,4.0,69,0.00,,,0.00,Wunderground v.1.15,2013-04-02 06:44:00,
2013-04-02 02:50:00,24.2,15.8,30.10,WSW,258,3.0,5.0,70,0.00,,,0.00,Wunderground v.1.15,2013-04-02 06:50:00,
2013-04-02 02:57:00,24.2,17.1,30.10,West,279,5.0,7.0,74,0.00,,,0.00,Wunderground v.1.15,2013-04-02 06:57:00,
2013-04-02 03:03:00,24.0,17.8,30.10,West,279,4.0,7.0,77,0.00,,,0.00,Wunderground v.1.15,2013-04-02 07:03:00,
2013-04-02 03:08:00,23.9,18.0,30.10,WNW,290,3.0,7.0,78,0.00,,,0.00,Wunderground v.1.15,2013-04-02 07:08:00,
2013-04-02 03:13:00,23.9,18.0,30.10,West,273,3.0,5.0,78,0.00,,,0.00,Wunderground v.1.15,2013-04-02 07:13:00,
2013-04-02 03:18:00,23.8,17.9,30.10,West,261,3.0,5.0,78,0.00,,,0.00,Wunderground v.1.15,2013-04-02 07:18:00,
2013-04-02 03:24:00,23.7,17.8,30.10,WSW,258,2.0,4.0,78,0.00,,,0.00,Wunderground v.1.15,2013-04-02 07:24:00,
2013-04-02 03:30:00,23.7,17.5,30.10,NW,306,3.0,4.0,77,0.00,,,0.00,Wunderground v.1.15,2013-04-02 07:30:00,
2013-04-02 03:36:00,23.7,17.2,30.10,West,267,3.0,5.0,76,0.00,,,0.00,Wunderground v.1.15,2013-04-02 07:36:00,
2013-04-02 03:42:00,23.7,16.9,30.10,WNW,296,3.0,7.0,75,0.00,,,0.00,Wunderground v.1.15,2013-04-02 07:42:00,
2013-04-02 03:47:00,23.8,17.0,30.10,WNW,292,3.0,7.0,75,0.00,,,0.00,Wunderground v.1.15,2013-04-02 07:47:00,
2013-04-02 03:52:00,23.9,16.8,30.10,WNW,302,3.0,4.0,74,0.00,,,0.00,Wunderground v.1.15,2013-04-02 07:52:00,
2013-04-02 03:57:00,23.9,16.8,30.10,WNW,289,3.0,7.0,74,0.00,,,0.00,Wunderground v.1.15,2013-04-02 07:57:00,
2013-04-02 04:02:00,23.8,16.7,30.10,WNW,284,3.0,6.0,74,0.00,,,0.00,Wunderground v.1.15,2013-04-02 08:02:00,
2013-04-02 04:08:00,23.9,17.1,30.10,West,269,3.0,6.0,75,0.00,,,0.00,Wunderground v.1.15,2013-04-02 08:08:00,
2013-04-02 04:13:00,23.9,17.1,30.10,WNW,283,3.0,4.0,75,0.00,,,0.00,Wunderground v.1.15,2013-04-02 08:13:00,
2013-04-02 04:18:00,23.9,17.4,30.10,NW,309,4.0,9.0,76,0.00,,,0.00,Wunderground v.1.15,2013-04-02 08:18:00,
2013-04-02 04:24:00,24.0,17.5,30.10,West,280,4.0,4.0,76,0.00,,,0.00,Wunderground v.1.15,2013-04-02 08:24:00,
2013-04-02 04:29:00,24.0,17.5,30.10,WNW,285,4.0,4.0,76,0.00,,,0.00,Wunderground v.1.15,2013-04-02 08:29:00,
2013-04-02 04:35:00,23.9,17.7,30.10,WNW,294,3.0,5.0,77,0.00,,,0.00,Wunderground v.1.15,2013-04-02 08:35:00,
2013-04-02 04:41:00,24.0,18.7,30.10,WNW,300,4.0,4.0,80,0.00,,,0.00,Wunderground v.1.15,2013-04-02 08:41:00,
2013-04-02 04:46:00,24.1,19.1,30.10,WNW,290,4.0,5.0,81,0.00,,,0.00,Wunderground v.1.15,2013-04-02 08:46:00,
2013-04-02 04:52:00,24.1,19.4,30.10,WNW,282,3.0,4.0,82,0.00,,,0.00,Wunderground v.1.15,2013-04-02 08:52:00,
2013-04-02 04:57:00,24.2,20.1,30.10,WNW,289,4.0,7.0,84,0.00,,,0.00,Wunderground v.1.15,2013-04-02 08:57:00,
2013-04-02 05:03:00,24.2,20.1,30.10,WNW,287,4.0,6.0,84,0.00,,,0.00,Wunderground v.1.15,2013-04-02 09:03:00,
2013-04-02 05:09:00,24.1,20.2,30.10,WNW,286,4.0,6.0,85,0.00,,,0.00,Wunderground v.1.15,2013-04-02 09:09:00,
2013-04-02 05:15:00,24.1,20.2,30.10,West,281,4.0,5.0,85,0.00,,,0.00,Wunderground v.1.15,2013-04-02 09:15:00,
2013-04-02 05:21:00,24.0,20.1,30.10,WNW,296,3.0,6.0,85,0.00,,,0.00,Wunderground v.1.15,2013-04-02 09:21:00,
2013-04-02 05:27:00,23.9,20.3,30.11,West,281,3.0,6.0,86,0.00,,,0.00,Wunderground v.1.15,2013-04-02 09:27:00,
2013-04-02 05:32:00,23.9,20.3,30.11,WNW,291,3.0,5.0,86,0.00,,,0.00,Wunderground v.1.15,2013-04-02 09:32:00,
2013-04-02 05:37:00,23.9,20.3,30.11,West,270,4.0,6.0,86,0.00,,,0.00,Wunderground v.1.15,2013-04-02 09:37:00,
2013-04-02 05:43:00,23.9,20.6,30.11,WSW,244,5.0,7.0,87,0.00,,,0.00,Wunderground v.1.15,2013-04-02 09:43:00,
2013-04-02 05:49:00,23.9,20.6,30.11,WNW,291,5.0,7.0,87,0.00,,,0.00,Wunderground v.1.15,2013-04-02 09:49:00,
2013-04-02 05:55:00,23.8,20.2,30.11,NW,304,4.0,5.0,86,0.00,,,0.00,Wunderground v.1.15,2013-04-02 09:55:00,
2013-04-02 06:00:00,23.7,20.1,30.12,West,277,3.0,3.0,86,0.00,,,0.00,Wunderground v.1.15,2013-04-02 10:00:00,
2013-04-02 06:06:00,23.5,19.9,30.12,WNW,292,2.0,3.0,86,0.00,,,0.00,Wunderground v.1.15,2013-04-02 10:06:00,
2013-04-02 06:11:00,23.4,20.1,30.12,WNW,292,2.0,4.0,87,0.00,,,0.00,Wunderground v.1.15,2013-04-02 10:11:00,
2013-04-02 06:17:00,23.2,19.9,30.12,WNW,290,2.0,4.0,87,0.00,,,0.00,Wunderground v.1.15,2013-04-02 10:17:00,
2013-04-02 06:23:00,23.1,19.8,30.13,WNW,286,2.0,4.0,87,0.00,,,0.00,Wunderground v.1.15,2013-04-02 10:23:00,
2013-04-02 06:28:00,23.0,19.7,30.13,WNW,286,3.0,4.0,87,0.00,,,0.00,Wunderground v.1.15,2013-04-02 10:28:00,
2013-04-02 06:34:00,23.0,19.7,30.13,West,277,3.0,4.0,87,0.00,,,0.00,Wunderground v.1.15,2013-04-02 10:34:00,
2013-04-02 06:40:00,23.0,19.7,30.13,West,275,3.0,3.0,87,0.00,,,0.00,Wunderground v.1.15,2013-04-02 10:40:00,
2013-04-02 06:45:00,23.0,19.7,30.13,WNW,286,4.0,4.0,87,0.00,,,0.00,Wunderground v.1.15,2013-04-02 10:45:00,
2013-04-02 06:51:00,22.9,19.6,30.13,WNW,297,4.0,5.0,87,0.00,,,0.00,Wunderground v.1.15,2013-04-02 10:51:00,
2013-04-02 06:57:00,22.9,19.6,30.14,West,275,4.0,5.0,87,0.00,,,0.00,Wunderground v.1.15,2013-04-02 10:57:00,
2013-04-02 07:03:00,22.9,19.6,30.14,WNW,294,4.0,4.0,87,0.00,,,0.00,Wunderground v.1.15,2013-04-02 11:03:00,
2013-04-02 07:08:00,22.9,19.6,30.14,NW,304,4.0,6.0,87,0.00,,,0.00,Wunderground v.1.15,2013-04-02 11:08:00,
2013-04-02 07:14:00,22.8,19.5,30.14,WNW,288,3.0,4.0,87,0.00,,,0.00,Wunderground v.1.15,2013-04-02 11:14:00,
2013-04-02 07:19:00,22.7,19.7,30.14,WNW,291,3.0,4.0,88,0.00,,,0.00,Wunderground v.1.15,2013-04-02 11:19:00,
2013-04-02 07:24:00,22.6,19.6,30.14,West,269,2.0,3.0,88,0.00,,,0.00,Wunderground v.1.15,2013-04-02 11:24:00,
2013-04-02 07:30:00,22.6,19.6,30.14,WNW,296,2.0,3.0,88,0.00,,,0.00,Wunderground v.1.15,2013-04-02 11:30:00,
2013-04-02 07:35:00,22.6,19.6,30.15,WNW,283,2.0,3.0,88,0.00,,,0.00,Wunderground v.1.15,2013-04-02 11:35:00,
2013-04-02 07:40:00,22.6,19.6,30.15,West,265,2.0,2.0,88,0.00,,,0.00,Wunderground v.1.15,2013-04-02 11:40:00,
2013-04-02 07:45:00,22.6,19.6,30.15,West,274,2.0,3.0,88,0.00,,,0.00,Wunderground v.1.15,2013-04-02 11:45:00,
2013-04-02 07:51:00,22.6,19.6,30.15,WNW,284,2.0,2.0,88,0.00,,,0.00,Wunderground v.1.15,2013-04-02 11:51:00,
2013-04-02 07:56:00,22.5,19.5,30.15,NW,304,1.0,3.0,88,0.00,,,0.00,Wunderground v.1.15,2013-04-02 11:56:00,
2013-04-02 08:02:00,22.6,19.6,30.15,West,273,1.0,3.0,88,0.00,,,0.00,Wunderground v.1.15,2013-04-02 12:02:00,
2013-04-02 08:08:00,22.9,19.9,30.15,West,259,2.0,4.0,88,0.00,,,0.00,Wunderground v.1.15,2013-04-02 12:08:00,
2013-04-02 08:14:00,23.3,20.0,30.16,West,270,3.0,4.0,87,0.00,,,0.00,Wunderground v.1.15,2013-04-02 12:14:00,
2013-04-02 08:20:00,23.6,20.0,30.16,West,269,3.0,4.0,86,0.00,,,0.00,Wunderground v.1.15,2013-04-02 12:20:00,
2013-04-02 08:25:00,24.0,19.9,30.16,WNW,284,4.0,5.0,84,0.00,,,0.00,Wunderground v.1.15,2013-04-02 12:25:00,
2013-04-02 08:30:00,24.3,19.9,30.16,WSW,243,4.0,4.0,83,0.00,,,0.00,Wunderground v.1.15,2013-04-02 12:30:00,
2013-04-02 08:36:00,24.6,19.6,30.17,WNW,294,4.0,5.0,81,0.00,,,0.00,Wunderground v.1.15,2013-04-02 12:36:00,
2013-04-02 08:41:00,24.9,19.6,30.17,WNW,293,4.0,6.0,80,0.00,,,0.00,Wunderground v.1.15,2013-04-02 12:41:00,
2013-04-02 08:47:00,25.2,19.0,30.17,West,267,4.0,7.0,77,0.00,,,0.00,Wunderground v.1.15,2013-04-02 12:47:00,
2013-04-02 08:52:00,25.6,19.1,30.17,WSW,242,4.0,5.0,76,0.00,,,0.00,Wunderground v.1.15,2013-04-02 12:52:00,
2013-04-02 08:58:00,25.9,18.7,30.17,NW,323,4.0,5.0,74,0.00,,,0.00,Wunderground v.1.15,2013-04-02 12:58:00,
2013-04-02 09:03:00,26.2,18.7,30.17,WNW,283,4.0,6.0,73,0.00,,,0.00,Wunderground v.1.15,2013-04-02 13:03:00,
2013-04-02 09:08:00,26.5,18.7,30.17,WNW,292,4.0,6.0,72,0.00,,,0.00,Wunderground v.1.15,2013-04-02 13:08:00,
2013-04-02 09:13:00,26.9,17.7,30.17,WSW,250,4.0,6.0,68,0.00,,,0.00,Wunderground v.1.15,2013-04-02 13:13:00,
2013-04-02 09:19:00,27.1,17.6,30.17,WNW,302,5.0,6.0,67,0.00,,,0.00,Wunderground v.1.15,2013-04-02 13:19:00,
2013-04-02 09:25:00,27.5,18.0,30.17,WNW,284,4.0,6.0,67,0.00,,,0.00,Wunderground v.1.15,2013-04-02 13:25:00,
2013-04-02 09:31:00,27.9,17.3,30.17,West,276,4.0,8.0,64,0.00,,,0.00,Wunderground v.1.15,2013-04-02 13:31:00,
2013-04-02 09:36:00,28.1,17.5,30.17,WNW,283,5.0,8.0,64,0.00,,,0.00,Wunderground v.1.15,2013-04-02 13:36:00,
2013-04-02 09:41:00,28.4,17.4,30.17,WNW,294,5.0,9.0,63,0.00,,,0.00,Wunderground v.1.15,2013-04-02 13:41:00,
2013-04-02 09:47:00,28.6,17.2,30.16,NW,306,6.0,9.0,62,0.00,,,0.00,Wunderground v.1.15,2013-04-02 13:47:00,
2013-04-02 09:52:00,29.0,17.2,30.16,WNW,300,6.0,6.0,61,0.00,,,0.00,Wunderground v.1.15,2013-04-02 13:52:00,
2013-04-02 09:58:00,29.3,16.7,30.16,WSW,258,6.0,11.0,59,0.00,,,0.00,Wunderground v.1.15,2013-04-02 13:58:00,
2013-04-02 10:04:00,29.7,16.7,30.17,WNW,285,8.0,11.0,58,0.00,,,0.00,Wunderground v.1.15,2013-04-02 14:04:00,
2013-04-02 10:10:00,30.1,16.3,30.17,NW,306,8.0,8.0,56,0.00,,,0.00,Wunderground v.1.15,2013-04-02 14:10:00,
2013-04-02 10:15:00,30.5,16.2,30.17,WNW,285,8.0,11.0,55,0.00,,,0.00,Wunderground v.1.15,2013-04-02 14:15:00,
2013-04-02 10:20:00,30.8,15.7,30.17,WSW,252,8.0,8.0,53,0.00,,,0.00,Wunderground v.1.15,2013-04-02 14:20:00,
2013-04-02 10:26:00,31.0,16.3,30.17,NW,310,8.0,9.0,54,0.00,,,0.00,Wunderground v.1.15,2013-04-02 14:26:00,
2013-04-02 10:31:00,31.3,16.1,30.17,WNW,288,7.0,10.0,53,0.00,,,0.00,Wunderground v.1.15,2013-04-02 14:31:00,
2013-04-02 10:37:00,31.5,16.3,30.17,NNW,332,8.0,13.0,53,0.00,,,0.00,Wunderground v.1.15,2013-04-02 14:37:00,
2013-04-02 10:42:00,31.8,16.2,30.17,West,262,7.0,11.0,52,0.00,,,0.00,Wunderground v.1.15,2013-04-02 14:42:00,
2013-04-02 10:47:00,31.9,15.8,30.17,NW,311,9.0,15.0,51,0.00,,,0.00,Wunderground v.1.15,2013-04-02 14:47:00,
2013-04-02 10:53:00,31.7,14.2,30.17,NW,308,10.0,12.0,48,0.00,,,0.00,Wunderground v.1.15,2013-04-02 14:53:00,
2013-04-02 10:59:00,32.1,15.5,30.17,NW,312,8.0,12.0,50,0.00,,,0.00,Wunderground v.1.15,2013-04-02 14:59:00,
2013-04-02 11:05:00,32.1,15.1,30.17,NW,313,10.0,19.0,49,0.00,,,0.00,Wunderground v.1.15,2013-04-02 15:05:00,
2013-04-02 11:11:00,32.1,14.6,30.17,WNW,300,10.0,16.0,48,0.00,,,0.00,Wunderground v.1.15,2013-04-02 15:11:00,
2013-04-02 11:16:00,32.3,15.7,30.17,WNW,287,8.0,16.0,50,0.00,,,0.00,Wunderground v.1.15,2013-04-02 15:16:00,
2013-04-02 11:21:00,32.4,15.8,30.17,WNW,291,8.0,10.0,50,0.00,,,0.00,Wunderground v.1.15,2013-04-02 15:21:00,
2013-04-02 11:27:00,32.3,15.3,30.17,WNW,286,9.0,14.0,49,0.00,,,0.00,Wunderground v.1.15,2013-04-02 15:27:00,
2013-04-02 11:33:00,32.7,15.6,30.17,WNW,299,10.0,14.0,49,0.00,,,0.00,Wunderground v.1.15,2013-04-02 15:33:00,
2013-04-02 11:39:00,33.2,16.1,30.17,WNW,285,9.0,14.0,49,0.00,,,0.00,Wunderground v.1.15,2013-04-02 15:39:00,
2013-04-02 11:45:00,32.8,15.2,30.17,WNW,290,8.0,10.0,48,0.00,,,0.00,Wunderground v.1.15,2013-04-02 15:45:00,
2013-04-02 11:51:00,32.9,15.8,30.17,WNW,295,9.0,12.0,49,0.00,,,0.00,Wunderground v.1.15,2013-04-02 15:51:00,
2013-04-02 11:56:00,32.5,15.4,30.17,NW,308,9.0,12.0,49,0.00,,,0.00,Wunderground v.1.15,2013-04-02 15:56:00,
2013-04-02 12:01:00,33.0,15.4,30.17,WNW,284,10.0,10.0,48,0.00,,,0.00,Wunderground v.1.15,2013-04-02 16:01:00,
2013-04-02 12:07:00,33.1,15.5,30.17,WNW,294,10.0,13.0,48,0.00,,,0.00,Wunderground v.1.15,2013-04-02 16:07:00,
2013-04-02 12:13:00,33.3,16.2,30.17,North,355,9.0,14.0,49,0.00,,,0.00,Wunderground v.1.15,2013-04-02 16:13:00,
2013-04-02 12:18:00,33.5,15.9,30.17,WNW,285,8.0,14.0,48,0.00,,,0.00,Wunderground v.1.15,2013-04-02 16:18:00,
2013-04-02 12:24:00,33.4,15.3,30.17,WNW,284,8.0,15.0,47,0.00,,,0.00,Wunderground v.1.15,2013-04-02 16:24:00,
2013-04-02 12:30:00,34.0,16.3,30.17,WNW,291,7.0,10.0,48,0.00,,,0.00,Wunderground v.1.15,2013-04-02 16:30:00,
2013-04-02 12:36:00,33.9,15.3,30.17,WNW,284,7.0,11.0,46,0.00,,,0.00,Wunderground v.1.15,2013-04-02 16:36:00,
2013-04-02 12:42:00,34.4,15.7,30.17,WNW,292,7.0,13.0,46,0.00,,,0.00,Wunderground v.1.15,2013-04-02 16:42:00,
2013-04-02 12:48:00,34.2,16.0,30.17,North,355,8.0,13.0,47,0.00,,,0.00,Wunderground v.1.15,2013-04-02 16:48:00,
2013-04-02 12:53:00,33.9,15.8,30.17,NW,306,8.0,11.0,47,0.00,,,0.00,Wunderground v.1.15,2013-04-02 16:53:00,
2013-04-02 12:59:00,34.2,16.0,30.17,WNW,289,9.0,14.0,47,0.00,,,0.00,Wunderground v.1.15,2013-04-02 16:59:00,
2013-04-02 13:04:00,34.7,15.5,30.17,West,281,8.0,9.0,45,0.00,,,0.00,Wunderground v.1.15,2013-04-02 17:04:00,
2013-04-02 13:10:00,34.9,17.7,30.17,West,281,8.0,9.0,49,0.00,,,0.00,Wunderground v.1.15,2013-04-02 17:10:00,
2013-04-02 13:15:00,35.5,16.7,30.16,WSW,250,8.0,13.0,46,0.00,,,0.00,Wunderground v.1.15,2013-04-02 17:15:00,
2013-04-02 13:23:00,35.9,16.1,30.16,WNW,288,8.0,12.0,44,0.00,,,0.00,Wunderground v.1.15,2013-04-02 17:23:00,
2013-04-02 13:28:00,36.0,15.6,30.16,WNW,283,7.0,12.0,43,0.00,,,0.00,Wunderground v.1.15,2013-04-02 17:28:00,
2013-04-02 13:34:00,35.2,14.9,30.16,WNW,296,8.0,14.0,43,0.00,,,0.00,Wunderground v.1.15,2013-04-02 17:34:00,
2013-04-02 13:39:00,34.9,14.6,30.16,WNW,286,7.0,14.0,43,0.00,,,0.00,Wunderground v.1.15,2013-04-02 17:39:00,
2013-04-02 13:44:00,35.2,15.4,30.16,NW,323,6.0,9.0,44,0.00,,,0.00,Wunderground v.1.15,2013-04-02 17:44:00,
2013-04-02 13:50:00,35.6,15.8,30.16,WNW,290,8.0,11.0,44,0.00,,,0.00,Wunderground v.1.15,2013-04-02 17:50:00,
2013-04-02 13:56:00,35.6,15.3,30.16,WNW,298,8.0,11.0,43,0.00,,,0.00,Wunderground v.1.15,2013-04-02 17:56:00,
2013-04-02 14:02:00,35.7,14.8,30.15,NW,311,8.0,14.0,42,0.00,,,0.00,Wunderground v.1.15,2013-04-02 18:02:00,
2013-04-02 14:07:00,36.0,15.1,30.15,West,279,9.0,15.0,42,0.00,,,0.00,Wunderground v.1.15,2013-04-02 18:07:00,
2013-04-02 14:13:00,36.4,14.9,30.15,WNW,296,9.0,12.0,41,0.00,,,0.00,Wunderground v.1.15,2013-04-02 18:13:00,
2013-04-02 14:18:00,36.8,14.7,30.15,WNW,302,9.0,12.0,40,0.00,,,0.00,Wunderground v.1.15,2013-04-02 18:18:00,
2013-04-02 14:24:00,37.0,14.3,30.15,West,263,8.0,17.0,39,0.00,,,0.00,Wunderground v.1.15,2013-04-02 18:24:00,
2013-04-02 14:30:00,37.2,14.5,30.14,NW,311,10.0,11.0,39,0.00,,,0.00,Wunderground v.1.15,2013-04-02 18:30:00,
2013-04-02 14:35:00,36.5,14.4,30.14,NNW,331,10.0,12.0,40,0.00,,,0.00,Wunderground v.1.15,2013-04-02 18:35:00,
2013-04-02 14:41:00,35.9,15.0,30.14,West,277,10.0,19.0,42,0.00,,,0.00,Wunderground v.1.15,2013-04-02 18:41:00,
2013-04-02 14:47:00,36.3,17.0,30.15,WNW,282,10.0,19.0,45,0.00,,,0.00,Wunderground v.1.15,2013-04-02 18:47:00,
2013-04-02 14:53:00,36.3,17.0,30.14,WNW,295,7.0,12.0,45,0.00,,,0.00,Wunderground v.1.15,2013-04-02 18:53:00,
2013-04-02 14:58:00,36.9,15.9,30.14,WNW,296,7.0,16.0,42,0.00,,,0.00,Wunderground v.1.15,2013-04-02 18:58:00,
2013-04-02 15:04:00,36.9,17.0,30.14,WNW,302,9.0,9.0,44,0.00,,,0.00,Wunderground v.1.15,2013-04-02 19:04:00,
2013-04-02 15:09:00,36.8,15.3,30.14,WNW,292,8.0,13.0,41,0.00,,,0.00,Wunderground v.1.15,2013-04-02 19:09:00,
2013-04-02 15:14:00,37.2,16.7,30.14,WNW,297,7.0,8.0,43,0.00,,,0.00,Wunderground v.1.15,2013-04-02 19:14:00,
2013-04-02 15:20:00,38.4,16.1,30.14,West,281,8.0,16.0,40,0.00,,,0.00,Wunderground v.1.15,2013-04-02 19:20:00,
2013-04-02 15:26:00,38.5,16.8,30.14,NW,314,9.0,16.0,41,0.00,,,0.00,Wunderground v.1.15,2013-04-02 19:26:00,
2013-04-02 15:32:00,38.3,14.9,30.14,WNW,293,8.0,9.0,38,0.00,,,0.00,Wunderground v.1.15,2013-04-02 19:32:00,
2013-04-02 15:38:00,37.4,14.7,30.13,WNW,288,7.0,12.0,39,0.00,,,0.00,Wunderground v.1.15,2013-04-02 19:38:00,
2013-04-02 15:43:00,38.0,15.8,30.13,WNW,294,7.0,7.0,40,0.00,,,0.00,Wunderground v.1.15,2013-04-02 19:43:00,
2013-04-02 15:49:00,38.7,14.6,30.13,NE,35,8.0,10.0,37,0.00,,,0.00,Wunderground v.1.15,2013-04-02 19:49:00,
2013-04-02 15:58:00,39.1,14.4,30.13,WNW,288,8.0,14.0,36,0.00,,,0.00,Wunderground v.1.15,2013-04-02 19:58:00,
2013-04-02 16:03:00,38.3,14.9,30.13,WNW,295,10.0,16.0,38,0.00,,,0.00,Wunderground v.1.15,2013-04-02 20:03:00,
2013-04-02 16:09:00,38.1,14.1,30.13,SW,236,10.0,16.0,37,0.00,,,0.00,Wunderground v.1.15,2013-04-02 20:09:00,
2013-04-02 16:14:00,38.0,15.2,30.13,WNW,303,10.0,14.0,39,0.00,,,0.00,Wunderground v.1.15,2013-04-02 20:14:00,
2013-04-02 16:20:00,37.7,14.3,30.13,NW,307,9.0,12.0,38,0.00,,,0.00,Wunderground v.1.15,2013-04-02 20:20:00,
2013-04-02 16:26:00,38.0,16.4,30.13,WNW,294,9.0,15.0,41,0.00,,,0.00,Wunderground v.1.15,2013-04-02 20:26:00,
2013-04-02 16:32:00,38.4,15.6,30.13,NNW,327,7.0,9.0,39,0.00,,,0.00,Wunderground v.1.15,2013-04-02 20:32:00,
2013-04-02 16:37:00,37.8,15.0,30.13,NW,306,7.0,9.0,39,0.00,,,0.00,Wunderground v.1.15,2013-04-02 20:37:00,
2013-04-02 16:42:00,37.3,15.2,30.13,WNW,297,8.0,11.0,40,0.00,,,0.00,Wunderground v.1.15,2013-04-02 20:42:00,
2013-04-02 16:48:00,37.3,14.0,30.13,NNW,327,8.0,11.0,38,0.00,,,0.00,Wunderground v.1.15,2013-04-02 20:48:00,
2013-04-02 16:53:00,37.5,15.3,30.13,West,281,8.0,12.0,40,0.00,,,0.00,Wunderground v.1.15,2013-04-02 20:53:00,
2013-04-02 16:58:00,37.5,13.6,30.13,NW,305,9.0,18.0,37,0.00,,,0.00,Wunderground v.1.15,2013-04-02 20:58:00,
2013-04-02 17:03:00,37.5,14.2,30.14,West,281,10.0,12.0,38,0.00,,,0.00,Wunderground v.1.15,2013-04-02 21:03:00,
2013-04-02 17:08:00,37.1,14.4,30.14,NNW,337,11.0,16.0,39,0.00,,,0.00,Wunderground v.1.15,2013-04-02 21:08:00,
2013-04-02 17:14:00,37.0,14.9,30.14,WNW,296,9.0,11.0,40,0.00,,,0.00,Wunderground v.1.15,2013-04-02 21:14:00,
2013-04-02 17:19:00,37.4,15.2,30.14,WNW,287,7.0,11.0,40,0.00,,,0.00,Wunderground v.1.15,2013-04-02 21:19:00,
2013-04-02 17:25:00,37.7,14.3,30.14,NW,304,8.0,12.0,38,0.00,,,0.00,Wunderground v.1.15,2013-04-02 21:25:00,
2013-04-02 17:31:00,37.7,14.9,30.14,WNW,293,8.0,11.0,39,0.00,,,0.00,Wunderground v.1.15,2013-04-02 21:31:00,
2013-04-02 17:36:00,37.7,14.9,30.14,WNW,284,8.0,12.0,39,0.00,,,0.00,Wunderground v.1.15,2013-04-02 21:36:00,
2013-04-02 17:42:00,38.3,14.9,30.15,NNW,329,8.0,14.0,38,0.00,,,0.00,Wunderground v.1.15,2013-04-02 21:42:00,
2013-04-02 17:48:00,38.9,14.8,30.14,WNW,299,8.0,14.0,37,0.00,,,0.00,Wunderground v.1.15,2013-04-02 21:48:00,
2013-04-02 17:54:00,38.3,14.9,30.15,WNW,302,9.0,11.0,38,0.00,,,0.00,Wunderground v.1.15,2013-04-02 21:54:00,
2013-04-02 17:59:00,38.2,13.6,30.15,West,280,11.0,19.0,36,0.00,,,0.00,Wunderground v.1.15,2013-04-02 21:59:00,
2013-04-02 18:05:00,37.9,13.9,30.15,West,281,12.0,20.0,37,0.00,,,0.00,Wunderground v.1.15,2013-04-02 22:05:00,
2013-04-02 18:10:00,38.2,13.6,30.15,West,259,10.0,12.0,36,0.00,,,0.00,Wunderground v.1.15,2013-04-02 22:10:00,
2013-04-02 18:16:00,38.6,13.3,30.15,WNW,293,9.0,12.0,35,0.00,,,0.00,Wunderground v.1.15,2013-04-02 22:16:00,
2013-04-02 18:22:00,38.8,14.1,30.16,WSW,248,8.0,9.0,36,0.00,,,0.00,Wunderground v.1.15,2013-04-02 22:22:00,
2013-04-02 18:27:00,38.4,13.1,30.15,WNW,297,8.0,14.0,35,0.00,,,0.00,Wunderground v.1.15,2013-04-02 22:27:00,
2013-04-02 18:33:00,38.0,14.0,30.16,WNW,297,9.0,16.0,37,0.00,,,0.00,Wunderground v.1.15,2013-04-02 22:33:00,
2013-04-02 18:39:00,38.0,14.0,30.16,WNW,294,9.0,16.0,37,0.00,,,0.00,Wunderground v.1.15,2013-04-02 22:39:00,
2013-04-02 18:45:00,38.2,14.2,30.16,WNW,288,8.0,15.0,37,0.00,,,0.00,Wunderground v.1.15,2013-04-02 22:45:00,
2013-04-02 18:50:00,38.0,14.0,30.16,NW,311,9.0,9.0,37,0.00,,,0.00,Wunderground v.1.15,2013-04-02 22:50:00,
2013-04-02 18:55:00,38.0,14.0,30.16,WNW,301,9.0,9.0,37,0.00,,,0.00,Wunderground v.1.15,2013-04-02 22:55:00,
2013-04-02 19:01:00,37.8,13.8,30.17,NW,324,7.0,7.0,37,0.00,,,0.00,Wunderground v.1.15,2013-04-02 23:01:00,
2013-04-02 19:06:00,37.5,12.9,30.17,WNW,300,7.0,8.0,36,0.00,,,0.00,Wunderground v.1.15,2013-04-02 23:06:00,
2013-04-02 19:12:00,37.0,13.1,30.17,WNW,284,8.0,17.0,37,0.00,,,0.00,Wunderground v.1.15,2013-04-02 23:12:00,
2013-04-02 19:17:00,36.5,13.3,30.17,NNW,344,8.0,17.0,38,0.00,,,0.00,Wunderground v.1.15,2013-04-02 23:17:00,
2013-04-02 19:23:00,36.3,13.1,30.17,WNW,298,7.0,10.0,38,0.00,,,0.00,Wunderground v.1.15,2013-04-02 23:23:00,
2013-04-02 19:29:00,36.1,13.5,30.18,WNW,286,6.0,10.0,39,0.00,,,0.00,Wunderground v.1.15,2013-04-02 23:29:00,
2013-04-02 19:35:00,35.7,13.1,30.18,WNW,300,6.0,12.0,39,0.00,,,0.00,Wunderground v.1.15,2013-04-02 23:35:00,
2013-04-02 19:41:00,35.5,13.0,30.18,WNW,292,7.0,11.0,39,0.00,,,0.00,Wunderground v.1.15,2013-04-02 23:41:00,
2013-04-02 19:47:00,35.3,12.8,30.18,West,279,8.0,13.0,39,0.00,,,0.00,Wunderground v.1.15,2013-04-02 23:47:00,
2013-04-02 19:52:00,35.1,13.2,30.18,NW,306,7.0,8.0,40,0.00,,,0.00,Wunderground v.1.15,2013-04-02 23:52:00,
2013-04-02 19:58:00,34.8,12.9,30.18,NW,311,6.0,8.0,40,0.00,,,0.00,Wunderground v.1.15,2013-04-02 23:58:00,
2013-04-02 20:04:00,34.6,12.7,30.18,WNW,292,6.0,7.0,40,0.00,,,0.00,Wunderground v.1.15,2013-04-03 00:04:00,
2013-04-02 20:10:00,34.6,13.3,30.19,WNW,300,7.0,7.0,41,0.00,,,0.00,Wunderground v.1.15,2013-04-03 00:10:00,
2013-04-02 20:15:00,34.4,13.1,30.19,NW,304,6.0,7.0,41,0.00,,,0.00,Wunderground v.1.15,2013-04-03 00:15:00,
2013-04-02 20:21:00,34.1,12.8,30.19,WNW,288,4.0,4.0,41,0.00,,,0.00,Wunderground v.1.15,2013-04-03 00:21:00,
2013-04-02 20:27:00,34.0,12.7,30.19,WNW,300,6.0,10.0,41,0.00,,,0.00,Wunderground v.1.15,2013-04-03 00:27:00,
2013-04-02 20:32:00,33.9,13.2,30.19,West,279,6.0,6.0,42,0.00,,,0.00,Wunderground v.1.15,2013-04-03 00:32:00,
2013-04-02 20:37:00,33.7,13.0,30.20,WNW,288,5.0,6.0,42,0.00,,,0.00,Wunderground v.1.15,2013-04-03 00:37:00,
2013-04-02 20:42:00,33.6,12.9,30.20,WNW,285,5.0,6.0,42,0.00,,,0.00,Wunderground v.1.15,2013-04-03 00:42:00,
2013-04-02 20:48:00,33.5,13.4,30.20,WNW,290,5.0,8.0,43,0.00,,,0.00,Wunderground v.1.15,2013-04-03 00:48:00,
2013-04-02 20:54:00,33.2,13.1,30.20,WNW,303,4.0,5.0,43,0.00,,,0.00,Wunderground v.1.15,2013-04-03 00:54:00,
2013-04-02 20:59:00,33.1,13.0,30.20,WNW,286,4.0,8.0,43,0.00,,,0.00,Wunderground v.1.15,2013-04-03 00:59:00,
2013-04-02 21:04:00,33.1,13.0,30.21,WNW,300,6.0,8.0,43,0.00,,,0.00,Wunderground v.1.15,2013-04-03 01:04:00,
2013-04-02 21:10:00,33.0,13.4,30.21,NW,304,5.0,5.0,44,0.00,,,0.00,Wunderground v.1.15,2013-04-03 01:10:00,
2013-04-02 21:15:00,32.7,13.2,30.21,WNW,303,4.0,5.0,44,0.00,,,0.00,Wunderground v.1.15,2013-04-03 01:15:00,
2013-04-02 21:21:00,32.5,13.5,30.21,WNW,296,4.0,6.0,45,0.00,,,0.00,Wunderground v.1.15,2013-04-03 01:21:00,
2013-04-02 21:27:00,32.3,13.3,30.22,WNW,302,5.0,6.0,45,0.00,,,0.00,Wunderground v.1.15,2013-04-03 01:27:00,
2013-04-02 21:33:00,32.1,13.1,30.22,WNW,286,5.0,6.0,45,0.00,,,0.00,Wunderground v.1.15,2013-04-03 01:33:00,
2013-04-02 21:38:00,32.0,13.5,30.22,WNW,302,5.0,6.0,46,0.00,,,0.00,Wunderground v.1.15,2013-04-03 01:38:00,
2013-04-02 21:44:00,31.8,13.3,30.22,WNW,283,4.0,7.0,46,0.00,,,0.00,Wunderground v.1.15,2013-04-03 01:44:00,
2013-04-02 21:49:00,31.8,13.8,30.23,WNW,290,5.0,7.0,47,0.00,,,0.00,Wunderground v.1.15,2013-04-03 01:49:00,
2013-04-02 21:55:00,31.7,13.7,30.23,WNW,292,5.0,6.0,47,0.00,,,0.00,Wunderground v.1.15,2013-04-03 01:55:00,
2013-04-02 22:00:00,31.5,14.0,30.23,NW,323,4.0,6.0,48,0.00,,,0.00,Wunderground v.1.15,2013-04-03 02:00:00,
2013-04-02 22:06:00,31.3,14.3,30.23,NNW,327,4.0,6.0,49,0.00,,,0.00,Wunderground v.1.15,2013-04-03 02:06:00,
2013-04-02 22:11:00,31.1,14.1,30.23,WNW,302,4.0,5.0,49,0.00,,,0.00,Wunderground v.1.15,2013-04-03 02:11:00,
2013-04-02 22:17:00,30.8,14.3,30.23,NW,309,3.0,5.0,50,0.00,,,0.00,Wunderground v.1.15,2013-04-03 02:17:00,
2013-04-02 22:22:00,30.6,14.6,30.24,NW,320,3.0,3.0,51,0.00,,,0.00,Wunderground v.1.15,2013-04-03 02:22:00,
2013-04-02 22:28:00,30.5,14.5,30.24,WNW,297,3.0,5.0,51,0.00,,,0.00,Wunderground v.1.15,2013-04-03 02:28:00,
2013-04-02 22:33:00,30.5,14.5,30.24,WNW,292,3.0,5.0,51,0.00,,,0.00,Wunderground v.1.15,2013-04-03 02:33:00,
2013-04-02 22:39:00,30.4,14.4,30.24,NNW,336,4.0,6.0,51,0.00,,,0.00,Wunderground v.1.15,2013-04-03 02:39:00,
2013-04-02 22:45:00,30.3,14.8,30.24,WNW,289,5.0,7.0,52,0.00,,,0.00,Wunderground v.1.15,2013-04-03 02:45:00,
2013-04-02 22:51:00,30.3,14.3,30.24,NNW,328,5.0,5.0,51,0.00,,,0.00,Wunderground v.1.15,2013-04-03 02:51:00,
2013-04-02 22:56:00,30.2,14.2,30.24,WNW,295,4.0,5.0,51,0.00,,,0.00,Wunderground v.1.15,2013-04-03 02:56:00,
2013-04-02 23:02:00,30.0,14.5,30.24,NW,313,4.0,5.0,52,0.00,,,0.00,Wunderground v.1.15,2013-04-03 03:02:00,
2013-04-02 23:08:00,29.8,14.7,30.25,NW,323,3.0,5.0,53,0.00,,,0.00,Wunderground v.1.15,2013-04-03 03:08:00,
2013-04-02 23:14:00,29.6,14.5,30.25,WNW,296,3.0,5.0,53,0.00,,,0.00,Wunderground v.1.15,2013-04-03 03:14:00,
2013-04-02 23:19:00,29.4,14.8,30.25,NNW,334,3.0,5.0,54,0.00,,,0.00,Wunderground v.1.15,2013-04-03 03:19:00,
2013-04-02 23:25:00,29.3,14.7,30.25,NW,325,3.0,4.0,54,0.00,,,0.00,Wunderground v.1.15,2013-04-03 03:25:00,
2013-04-02 23:31:00,29.2,14.6,30.25,WNW,295,3.0,3.0,54,0.00,,,0.00,Wunderground v.1.15,2013-04-03 03:31:00,
2013-04-02 23:36:00,29.1,14.5,30.25,West,281,2.0,3.0,54,0.00,,,0.00,Wunderground v.1.15,2013-04-03 03:36:00,
2013-04-02 23:42:00,28.9,14.7,30.25,WNW,296,2.0,3.0,55,0.00,,,0.00,Wunderground v.1.15,2013-04-03 03:42:00,
2013-04-02 23:48:00,28.8,14.6,30.25,WNW,296,2.0,3.0,55,0.00,,,0.00,Wunderground v.1.15,2013-04-03 03:48:00,
2013-04-02 23:54:00,28.7,15.0,30.25,WNW,296,2.0,2.0,56,0.00,,,0.00,Wunderground v.1.15,2013-04-03 03:54:00,